User: anonymous   Login
Location: Kalberh�ni
(46.4610°N, 7.2453°E)
Time: 02:10:58
(UTC+00:00)
Language:

Cosmos 1331 Rocket - Orbit

View from above orbital plane
View from above orbital plane
View from above satellite
View from above satellite

Ground track
Ground track

The orbit data is extracted from the following two-line orbital elements,

1 13028U 82001B   21259.47982410  .00000102  00000-0  41974-4 0  9991
2 13028  74.0416  48.8659 0018772 107.0384 253.2829 14.38444533 80329
Epoch (UTC): 16 September 2021 11:30:56
Eccentricity: 0.0018772
inclination: 74.0416°
perigee height: 750 km
apogee height: 777 km
right ascension of ascending node: 48.8659°
argument of perigee: 107.0384°
revolutions per day: 14.38444533
mean anomaly at epoch: 253.2829°
orbit number at epoch: 8032

The dashed part of the orbit path shows where the satellite is in the earth's shadow,  

DLR